Location: Tamazert
(32.6352°N, 5.2072°W)
Time: 09:40:42
(UTC+00:00)

Courier 1B Rocket - Pass Details

Date: 12 October 2022
Orbit: 920 x 1202 km, 28.3° (Epoch: 01 December)

Event Time Altitude Azimuth Distance (km) Brightness Sun altitude
Rises 19:34:17 0° 272° (W) 3,918 9.7 -22.4°
Reaches altitude 10° 19:37:19 10° 265° (W) 2,914 8.6 -23.0°
Maximum altitude 19:43:49 40° 199° (SSW) 1,476 6.0 -24.4°
Enters shadow 19:46:14 30° 157° (SSE) 1,717 6.0 -24.9°
